[[{"header":{"parameterUnit":"m.s-1","parameterCategory":2,"la1":30.2991,"la2":30.254,"lo1":-89.0895,"lo2":-89.0444,"dx":0.0017,"dy":0.0017,"nx":28,"ny":28,"refTime":"2023-01-10T15:00:00:Z","depth":"0","parameterNumber":2,"parameterNumberName":"U-component_of_CURRENTS"},"data":[0,0,0,0,0,0,0,0,0,0,0,0,0,0,0,0,0,0,0,0,0,0,0,0,0,0,0,0,0,0,0,0,0,0,0,0,0,0,0,0,0,0,0,0,0,0,0,0,0,0,0,0,0,0,0,0,0,0,0.3159,0.3161,0,0.3296,0.3298,0.3299,0.3322,0.3321,0.332,0.3319,0.333,0.3331,0.3332,0,0,0,0,0,0,0,0,0,0,0,0,0,0.3059,0.306,0.3159,0.3161,0.3163,0.3296,0.3298,0.33,0.3322,0.3321,0.3319,0.3318,0.3329,0.3331,0.3332,0,0,0,0,0,0,0,0,0,0,0,0,0,0.3139,0.306,0.3159,0.3191,0.3195,0.3296,0.3298,0.33,0.3322,0.3321,0.3319,0.3318,0.3329,0.3331,0.3332,0.3378,0,0,0.3339,0.3339,0,0,0,0,0,0,0,0,0.3134,0.3142,0.3184,0.3189,0.3194,0.3291,0.3267,0.332,0.3323,0.3273,0.3319,0.3317,0.3307,0.3311,0.3341,0.3378,0.3379,0.3339,0.334,0.3341,0.3341,0,0,0,0,0,0,0,0.3128,0.3137,0.3213,0.3186,0.3192,0.3247,0.3255,0.3278,0.3294,0.3277,0.3279,0.3297,0.3308,0.3339,0.3341,0.3379,0.3339,0.334,0.3342,0.3342,0.3481,0.3484,0,0,0,0,0,0,0.3108,0.3131,0.3208,0.3217,0.316,0.325,0.3259,0.3261,0.3297,0.3302,0.3298,0.3297,0.3336,0.3338,0.3341,0.3425,0.3341,0.3343,0.3344,0.3479,0.3482,0.3485,0,0,0,0,0,0,0.3105,0.3113,0.3203,0.3179,0.3194,0.3252,0.3255,0.3264,0.3298,0.3314,0.3317,0.3322,0.3335,0.3338,0.3386,0.3424,0.3343,0.3345,0.3476,0.348,0.3483,0.3574,0,0,0,0,0,0,0.3101,0.311,0.3118,0.3177,0.3195,0.328,0.3257,0.3268,0.3311,0.3312,0.3336,0.3335,0.3334,0.3383,0.3388,0.3425,0.3347,0.3473,0.3478,0.3482,0.3568,0.3581,0.3592,0,0,0,0,0,0.3097,0.3121,0.3117,0.3127,0.3198,0.3282,0.3298,0.3333,0.3314,0.3351,0.3366,0.3335,0.3415,0.3388,0.3392,0.3431,0.3471,0.3476,0.3482,0.3563,0.3578,0.3591,0,0,0,0,0,0,0.3078,0.3128,0.3124,0.3158,0.3219,0.3286,0.333,0.3341,0.3386,0.338,0.3374,0.3377,0.3438,0.3425,0.3394,0.3486,0.3435,0.3442,0.3495,0.351,0.3521,0.3485,0.3348,0,0,0,0,0,0.3076,0.3105,0.3161,0.319,0.3222,0.3272,0.3311,0.3335,0.3379,0.3397,0.3412,0.343,0.3469,0.3478,0.3512,0.356,0.355,0.3586,0.3598,0.3607,0.3583,0.3642,0.3656,0.3503,0.3503,0.3503,0,0,0.3071,0.3107,0.312,0.3189,0.3235,0.3298,0.3293,0.3362,0.3404,0.339,0.3451,0.3479,0.3495,0.3561,0.3583,0.3548,0.3649,0.3615,0.3623,0.3592,0.3649,0.3664,0.3677,0.3507,0.3506,0.3506,0,0,0.3102,0.3115,0.316,0.3218,0.3297,0.333,0.3348,0.3422,0.3448,0.3519,0.352,0.3564,0.362,0.364,0.3654,0.3746,0.372,0.3763,0.378,0.384,0.3852,0.3863,0.3878,0.3889,0.3756,0.3756,0.3757,0,0.3094,0.3149,0.3191,0.3261,0.3303,0.334,0.3399,0.3447,0.3524,0.354,0.3546,0.364,0.3655,0.3716,0.3751,0.3769,0.3787,0.3727,0.3854,0.3864,0.3873,0.3886,0.3898,0.3761,0.3761,0.376,0.376,0,0.3164,0.3214,0.3254,0.3333,0.3389,0.3452,0.3513,0.356,0.3584,0.3616,0.3692,0.3737,0.3776,0.3807,0.3806,0.3882,0.3869,0.3874,0.3813,0.3894,0.3903,0.3913,0.3769,0.3767,0.3765,0.3764,0,0,0.311,0.3267,0.3276,0.3332,0.3428,0.3483,0.3548,0.3613,0.3642,0.3718,0.3761,0.3842,0.3848,0.3863,0.3883,0.3927,0.4018,0.3926,0.3927,0.393,0.4131,0.3948,0.394,0.4061,0.4063,0.4065,0.4113,0,0.3141,0.3284,0.3336,0.3442,0.3519,0.3563,0.3615,0.3674,0.3718,0.3774,0.3815,0.3875,0.3876,0.3908,0.3956,0.4005,0.4048,0.4002,0.4059,0.4059,0.3879,0.3947,0.3731,0.374,0.4123,0.4124,0.4125,0,0.3173,0.3272,0.3394,0.3508,0.3536,0.3587,0.3658,0.3714,0.3781,0.3815,0.3868,0.3902,0.3967,0.3971,0.4072,0.405,0.4089,0.4122,0.4126,0.3917,0.3893,0.3721,0.3743,0.3659,0.414,0.4139,0.4138,0,0.3143,0.3289,0.3386,0.3435,0.3575,0.3606,0.3651,0.3719,0.3756,0.3837,0.3863,0.3949,0.3986,0.4069,0.4107,0.4116,0.4207,0.4229,0.4098,0.4085,0.3883,0.3847,0.3809,0.4307,0.4307,0.4307,0.4307,0,0.3161,0.3233,0.3381,0.3451,0.3522,0.3606,0.3658,0.3713,0.3776,0.3801,0.3876,0.3906,0.4019,0.407,0.4126,0.411,0.4223,0.4089,0.4086,0.3907,0.3875,0.3773,0.3767,0.4309,0.4308,0.4308,0.4308,0,0.314,0.3239,0.3361,0.3502,0.3529,0.3584,0.3657,0.368,0.3749,0.3786,0.381,0.3892,0.3941,0.4015,0.4127,0.4092,0.3996,0.41,0.3846,0.3809,0.3559,0.3565,0.3374,0.3297,0.3958,0.3954,0.395,0,0.3148,0.3216,0.3383,0.3421,0.3484,0.3557,0.3575,0.366,0.3673,0.3756,0.3754,0.3822,0.3822,0.3877,0.3844,0.3864,0.3846,0.3665,0.3623,0.349,0.3502,0.3413,0.336,0.3418,0.341,0.3404,0.3399,0,0.3161,0.3221,0.333,0.3407,0.3446,0.3482,0.3516,0.3529,0.3595,0.3619,0.3626,0.3642,0.3633,0.3512,0.3498,0.3505,0.3448,0.353,0.349,0.3127,0.2935,0.2876,0.3431,0.3343,0.3349,0.3353,0.3356,0.3358,0.3143,0.3208,0.3325,0.337,0.3395,0.3374,0.3348,0.3362,0.3367,0.3315,0.3439,0.3343,0.3252,0.3175,0.3154,0.2938,0.3044,0.2855,0.2895,0.2833,0.2668,0.305,0.2893,0.2895,0.2898,0.29,0.2902,0,0.3117,0.3192,0.3251,0.3294,0.324,0.3286,0.3261,0.3178,0.3103,0.3077,0.3048,0.2872,0.2719,0.2652,0.2448,0.2331,0.2282,0.2294,0.2173,0.2177,0.2598,0.2481,0.2107,0.2107,0.2107,0.2107,0.2107,0.2107,0.3113,0.318,0.3207,0.3119,0.3099,0.2959,0.291,0.2807,0.2745,0.2529,0.2368,0.2342,0.2308,0.2156,0.197,0.1936,0.1873,0.1708,0.1829,0.2178,0.2235,0.229,0.2179,0.1747,0.1747,0.1276,0.1273,0.127]},{"header":{"parameterUnit":"m.s-1","parameterCategory":2,"la1":30.2991,"la2":30.254,"lo1":-89.0895,"lo2":-89.0444,"dx":0.0017,"dy":0.0017,"nx":28,"ny":28,"refTime":"2023-01-10T15:00:00:Z","depth":"0","parameterNumber":3,"parameterNumberName":"V-component_of_CURRENTS"},"data":[0,0,0,0,0,0,0,0,0,0,0,0,0,0,0,0,0,0,0,0,0,0,0,0,0,0,0,0,0,0,0,0,0,0,0,0,0,0,0,0,0,0,0,0,0,0,0,0,0,0,0,0,0,0,0,0,0,0,0.05,0.05,0,0.0521,0.0521,0.0521,0.0509,0.0508,0.0508,0.0507,0.0396,0.0394,0.0391,0,0,0,0,0,0,0,0,0,0,0,0,0,0.0463,0.0463,0.05,0.05,0.0501,0.0521,0.0521,0.0521,0.0509,0.0508,0.0508,0.0507,0.0397,0.0394,0.0391,0,0,0,0,0,0,0,0,0,0,0,0,0,0.048,0.0463,0.05,0.0498,0.0498,0.0521,0.0521,0.0521,0.0509,0.0508,0.0507,0.0507,0.0398,0.0394,0.0391,0.0383,0,0,0.0379,0.0378,0,0,0,0,0,0,0,0,0.0479,0.0481,0.0498,0.0498,0.0498,0.0513,0.0468,0.0469,0.0509,0.0503,0.0507,0.0506,0.0424,0.0418,0.0424,0.0377,0.0373,0.0379,0.0377,0.0375,0.0374,0,0,0,0,0,0,0,0.0478,0.048,0.0507,0.0498,0.0498,0.0501,0.0502,0.0468,0.0464,0.0504,0.0503,0.0508,0.0423,0.0428,0.0421,0.0371,0.0379,0.0376,0.0373,0.0372,0.0366,0.0368,0,0,0,0,0,0,0.0478,0.0479,0.0506,0.0508,0.0488,0.0502,0.0503,0.0508,0.0467,0.0462,0.0508,0.0507,0.0435,0.0425,0.0417,0.043,0.0375,0.0372,0.0369,0.0364,0.0366,0.0368,0,0,0,0,0,0,0.0477,0.048,0.0505,0.0495,0.0498,0.0503,0.0508,0.0508,0.0515,0.0473,0.0464,0.0515,0.0434,0.0422,0.04,0.0424,0.037,0.0366,0.0361,0.0364,0.0367,0.0439,0,0,0,0,0,0,0.0476,0.0479,0.0483,0.0495,0.0499,0.0521,0.0509,0.0509,0.052,0.0518,0.0475,0.0465,0.0432,0.0406,0.0396,0.0418,0.0364,0.0358,0.0362,0.0366,0.0434,0.0444,0.0452,0,0,0,0,0,0.0474,0.0488,0.0483,0.0487,0.0504,0.0522,0.0525,0.0525,0.0521,0.0527,0.0506,0.0466,0.0425,0.0404,0.0392,0.0413,0.0357,0.0361,0.0366,0.0429,0.0442,0.0452,0,0,0,0,0,0,0.0473,0.0489,0.0483,0.05,0.0509,0.052,0.053,0.0531,0.0523,0.0517,0.0477,0.0465,0.0461,0.0432,0.0411,0.0429,0.039,0.0393,0.0443,0.0454,0.0463,0.0478,0.036,0,0,0,0,0,0.0475,0.049,0.0499,0.0512,0.0517,0.0524,0.0532,0.0533,0.0529,0.0526,0.0497,0.0478,0.0474,0.0458,0.0441,0.0436,0.0426,0.045,0.0459,0.0467,0.0476,0.0517,0.0531,0.0384,0.0384,0.0383,0,0,0.0477,0.0489,0.0495,0.0513,0.0519,0.0527,0.0527,0.0542,0.055,0.0511,0.0507,0.0501,0.0482,0.0488,0.0484,0.0461,0.0499,0.0473,0.048,0.0484,0.0523,0.0538,0.055,0.0387,0.0386,0.0386,0,0,0.049,0.0499,0.0511,0.052,0.0534,0.0538,0.0544,0.0553,0.0559,0.0555,0.055,0.0567,0.0526,0.0543,0.0542,0.0594,0.055,0.0586,0.0636,0.0677,0.0689,0.07,0.0678,0.0686,0.0588,0.0588,0.0588,0,0.0487,0.0506,0.0518,0.0529,0.0541,0.0543,0.0555,0.0563,0.0563,0.0586,0.0556,0.0587,0.0561,0.0615,0.0634,0.0615,0.0608,0.0589,0.0688,0.0699,0.0709,0.0684,0.0692,0.0592,0.0591,0.0591,0.0591,0,0.0506,0.0518,0.0529,0.0541,0.0554,0.0569,0.0579,0.0594,0.0596,0.0613,0.0661,0.0654,0.0682,0.0684,0.0662,0.0738,0.0698,0.0697,0.0656,0.0728,0.0697,0.0704,0.0598,0.0596,0.0595,0.0594,0,0,0.051,0.0535,0.054,0.0553,0.0564,0.0585,0.0603,0.0642,0.0687,0.0687,0.0758,0.0765,0.0788,0.0792,0.0795,0.0823,0.0869,0.0787,0.0787,0.0758,0.0915,0.0838,0.0838,0.0887,0.0889,0.0891,0.0855,0,0.052,0.0549,0.0558,0.0586,0.0602,0.0618,0.0646,0.0684,0.0713,0.0779,0.0815,0.0868,0.0822,0.0857,0.0883,0.0896,0.0897,0.0876,0.0857,0.0855,0.0774,0.0848,0.0825,0.0788,0.0862,0.0863,0.0863,0,0.0537,0.0557,0.0584,0.0631,0.0643,0.0659,0.0734,0.076,0.0846,0.0877,0.0944,0.0972,0.104,0.0988,0.1021,0.101,0.096,0.0945,0.0943,0.0855,0.0794,0.0736,0.0798,0.0718,0.0874,0.0873,0.0872,0,0.0553,0.0584,0.0612,0.0622,0.0664,0.0695,0.0725,0.0798,0.0858,0.0956,0.1023,0.1087,0.1142,0.1125,0.1078,0.1061,0.1092,0.1067,0.0935,0.0926,0.0895,0.088,0.0875,0.1065,0.1065,0.1066,0.1066,0,0.0571,0.0598,0.0625,0.0642,0.0705,0.0722,0.081,0.0853,0.0949,0.1054,0.1084,0.1183,0.1183,0.12,0.1128,0.1056,0.1126,0.0955,0.0932,0.0914,0.0902,0.0818,0.0783,0.1064,0.1064,0.1065,0.1065,0,0.0592,0.0601,0.0644,0.069,0.0713,0.0763,0.0859,0.0935,0.1002,0.1146,0.1187,0.1277,0.1299,0.125,0.1227,0.1119,0.1003,0.0993,0.0936,0.0907,0.0703,0.0673,0.0643,0.0614,0.086,0.0859,0.0857,0,0.0608,0.0626,0.0686,0.0726,0.0749,0.0822,0.0888,0.0961,0.1053,0.121,0.1298,0.1355,0.1424,0.1333,0.1171,0.1022,0.0948,0.0855,0.0822,0.07,0.0651,0.0637,0.0614,0.0793,0.0791,0.079,0.0788,0,0.0644,0.0662,0.0703,0.078,0.0845,0.0935,0.1033,0.1113,0.1224,0.1341,0.1495,0.1558,0.1462,0.1334,0.1091,0.0976,0.0806,0.0814,0.0742,0.0645,0.0581,0.0539,0.076,0.0774,0.0776,0.0777,0.0777,0.0778,0.068,0.0722,0.0776,0.0855,0.0935,0.1053,0.114,0.1258,0.1411,0.158,0.1623,0.1708,0.1474,0.1169,0.0996,0.0648,0.0693,0.0541,0.0523,0.0525,0.0484,0.0633,0.0591,0.0591,0.0591,0.0591,0.0592,0,0.0729,0.0778,0.0851,0.0955,0.1054,0.1086,0.1247,0.1338,0.1519,0.1646,0.1759,0.167,0.139,0.1085,0.0622,0.0403,0.0358,0.0299,0.0301,0.03,0.048,0.0463,0.0327,0.0327,0.0327,0.0327,0.0327,0.0327,0.0759,0.0836,0.0876,0.1041,0.1119,0.1254,0.1349,0.1479,0.159,0.1716,0.1741,0.1744,0.1521,0.0784,0.0317,0.0216,0.0125,0.0069,0.0046,0.0178,0.02,0.0222,0.0198,0.0009,0.0009,-0.0114,-0.0115,-0.0116]}],[{"header":{"parameterUnit":"m.s-1","parameterCategory":2,"la1":30.2991,"la2":30.254,"lo1":-89.0895,"lo2":-89.0444,"dx":0.0017,"dy":0.0017,"nx":28,"ny":28,"refTime":"2023-01-10T15:00:00:Z","depth":"2","parameterNumber":2,"parameterNumberName":"U-component_of_CURRENTS"},"data":[0,0,0,0,0,0,0,0,0,0,0,0,0,0,0,0,0,0,0,0,0,0,0,0,0,0,0,0,0,0,0,0,0,0,0,0,0,0,0,0,0,0,0,0,0,0,0,0,0,0,0,0,0,0,0,0,0,0,0.2199,0.2201,0,0.2308,0.2309,0.231,0.236,0.236,0.236,0.2361,0.2503,0.2506,0.251,0,0,0,0,0,0,0,0,0,0,0,0,0,0.2143,0.2143,0.2199,0.2201,0.2202,0.2308,0.2309,0.231,0.236,0.236,0.236,0.2361,0.2502,0.2506,0.251,0,0,0,0,0,0,0,0,0,0,0,0,0,0.2197,0.2142,0.2199,0.2243,0.2248,0.2308,0.2309,0.231,0.236,0.236,0.236,0.2361,0.2501,0.2506,0.2511,0.2535,0,0,0.2527,0.2529,0,0,0,0,0,0,0,0,0.2193,0.2198,0.2235,0.224,0.2246,0.2324,0.2342,0.2389,0.2359,0.2313,0.2361,0.2361,0.2449,0.2458,0.2472,0.2542,0.2548,0.2528,0.2531,0.2533,0.2535,0,0,0,0,0,0,0,0.219,0.2195,0.2238,0.2237,0.2244,0.2295,0.2302,0.2351,0.2375,0.2317,0.2322,0.2341,0.2452,0.2466,0.2475,0.255,0.2527,0.2532,0.2535,0.2538,0.2793,0.2796,0,0,0,0,0,0,0.2178,0.219,0.2235,0.2242,0.2225,0.2296,0.2303,0.2295,0.2374,0.2387,0.234,0.2343,0.2457,0.2469,0.2481,0.2575,0.2533,0.2538,0.2541,0.2789,0.2794,0.2798,0,0,0,0,0,0,0.2176,0.218,0.223,0.2224,0.2234,0.2296,0.2287,0.2298,0.2326,0.2392,0.2405,0.236,0.2458,0.2473,0.2587,0.2579,0.254,0.2545,0.2785,0.2791,0.2796,0.2725,0,0,0,0,0,0,0.2173,0.2178,0.2173,0.2222,0.2234,0.2248,0.2288,0.2299,0.2338,0.2343,0.2413,0.2426,0.2459,0.258,0.2593,0.2585,0.2549,0.2781,0.2788,0.2794,0.2723,0.2727,0.2731,0,0,0,0,0,0.217,0.217,0.2171,0.2177,0.2222,0.2248,0.2257,0.2302,0.2339,0.2333,0.2441,0.2424,0.2631,0.2588,0.2602,0.2595,0.2777,0.2786,0.2794,0.2721,0.2726,0.2731,0,0,0,0,0,0,0.216,0.2177,0.2179,0.2186,0.2203,0.2257,0.2289,0.2308,0.2384,0.2425,0.2477,0.2498,0.2587,0.263,0.2581,0.2702,0.2698,0.2709,0.2638,0.2644,0.2648,0.2688,0.2554,0,0,0,0,0,0.2148,0.2141,0.2166,0.2171,0.2193,0.224,0.2264,0.2291,0.2366,0.2398,0.2439,0.2535,0.2629,0.2669,0.274,0.2808,0.2845,0.2821,0.2825,0.2827,0.2879,0.2965,0.2979,0.2824,0.2824,0.2824,0,0,0.215,0.2159,0.2157,0.2167,0.2208,0.2231,0.2255,0.2305,0.233,0.2406,0.2469,0.2543,0.2657,0.2737,0.2778,0.2771,0.2876,0.2837,0.2838,0.289,0.2975,0.2989,0.3002,0.283,0.2829,0.2828,0,0,0.216,0.2161,0.2166,0.2174,0.2221,0.2247,0.2258,0.2304,0.2335,0.2407,0.2489,0.2581,0.2677,0.2758,0.2821,0.2903,0.2896,0.2911,0.2954,0.3033,0.3045,0.3057,0.3032,0.3043,0.2909,0.2908,0.2908,0,0.2161,0.216,0.2173,0.2185,0.2208,0.2252,0.2276,0.2312,0.2379,0.2433,0.2426,0.2655,0.2693,0.2865,0.2888,0.2902,0.2933,0.2901,0.3032,0.3045,0.3058,0.3032,0.3044,0.2906,0.2906,0.2907,0.2907,0,0.2178,0.2174,0.2194,0.2208,0.2229,0.226,0.2308,0.2339,0.2385,0.243,0.2581,0.2679,0.2823,0.2825,0.2881,0.3012,0.2991,0.3014,0.2996,0.3068,0.3036,0.3049,0.2903,0.2903,0.2904,0.2905,0,0,0.2165,0.2195,0.2194,0.2203,0.2246,0.2266,0.2329,0.24,0.2474,0.2541,0.2659,0.2797,0.2868,0.2954,0.3023,0.309,0.3132,0.3097,0.3102,0.3031,0.3254,0.3035,0.3028,0.3184,0.3188,0.3192,0.3158,0,0.217,0.2192,0.2203,0.2227,0.2252,0.2298,0.2346,0.2423,0.2502,0.2611,0.2761,0.2908,0.2915,0.3011,0.3078,0.3153,0.3185,0.3136,0.3237,0.3238,0.3002,0.3044,0.2838,0.2777,0.3171,0.3173,0.3175,0,0.2164,0.2184,0.2217,0.2245,0.2264,0.229,0.24,0.2451,0.2623,0.2699,0.2883,0.3005,0.3172,0.3158,0.3301,0.3278,0.3275,0.3297,0.3296,0.3148,0.3049,0.2797,0.2788,0.3198,0.3197,0.3195,0.3193,0,0.2155,0.2172,0.2204,0.2213,0.2272,0.2314,0.2362,0.2496,0.2581,0.2804,0.2908,0.3115,0.3252,0.3323,0.3347,0.3352,0.3453,0.3448,0.3241,0.3221,0.3098,0.306,0.3545,0.3545,0.3545,0.3545,0.3545,0,0.213,0.2148,0.2205,0.2227,0.2279,0.2322,0.2424,0.2505,0.2675,0.2809,0.2981,0.3136,0.3316,0.3395,0.3384,0.3325,0.347,0.3265,0.3225,0.3055,0.3015,0.3456,0.3446,0.3544,0.3544,0.3544,0.3545,0,0.2091,0.2138,0.2176,0.2249,0.2282,0.2325,0.2448,0.2534,0.2681,0.2874,0.2971,0.3191,0.3252,0.3318,0.341,0.3347,0.3322,0.3259,0.2985,0.2913,0.3018,0.3006,0.3038,0.3031,0.3024,0.3019,0.3015,0,0.206,0.2082,0.2187,0.2239,0.2276,0.2356,0.2432,0.2556,0.2657,0.2892,0.2991,0.3133,0.3164,0.3143,0.3087,0.2977,0.3124,0.2745,0.272,0.3021,0.2981,0.2978,0.2975,0.2499,0.2491,0.2484,0.2479,0,0.2012,0.2072,0.2127,0.2219,0.2304,0.2381,0.2492,0.2555,0.2722,0.2824,0.2933,0.2962,0.2941,0.2753,0.2624,0.2557,0.274,0.2595,0.3056,0.2635,0.2505,0.2466,0.2484,0.2419,0.2425,0.2429,0.2432,0.2435,0.1998,0.2016,0.2113,0.2183,0.2295,0.2384,0.2376,0.2467,0.2539,0.2597,0.2721,0.2616,0.2611,0.2253,0.2145,0.2091,0.2273,0.222,0.2247,0.2279,0.2199,0.2063,0.1873,0.1876,0.1878,0.188,0.1882,0,0.1978,0.2015,0.2068,0.2167,0.2235,0.2339,0.2397,0.2324,0.229,0.2345,0.2298,0.2017,0.1832,0.182,0.1633,0.159,0.1646,0.1539,0.1636,0.1694,0.1747,0.1646,0.1171,0.1169,0.1167,0.1165,0,0,0.1978,0.2014,0.2018,0.2086,0.217,0.2157,0.215,0.2039,0.1973,0.1816,0.1716,0.1722,0.1765,0.1447,0.1389,0.1265,0.1482,0.1208,0.1781,0.1956,0.2007,0.2135,0.2043,0,0,0,0,0]},{"header":{"parameterUnit":"m.s-1","parameterCategory":2,"la1":30.2991,"la2":30.254,"lo1":-89.0895,"lo2":-89.0444,"dx":0.0017,"dy":0.0017,"nx":28,"ny":28,"refTime":"2023-01-10T15:00:00:Z","depth":"2","parameterNumber":3,"parameterNumberName":"V-component_of_CURRENTS"},"data":[0,0,0,0,0,0,0,0,0,0,0,0,0,0,0,0,0,0,0,0,0,0,0,0,0,0,0,0,0,0,0,0,0,0,0,0,0,0,0,0,0,0,0,0,0,0,0,0,0,0,0,0,0,0,0,0,0,0,0.0189,0.0189,0,0.0123,0.0122,0.0121,0.007,0.007,0.007,0.007,-0.0084,-0.0088,-0.0092,0,0,0,0,0,0,0,0,0,0,0,0,0,0.0213,0.0213,0.0189,0.0189,0.0189,0.0123,0.0122,0.012,0.007,0.007,0.007,0.007,-0.0082,-0.0087,-0.0092,0,0,0,0,0,0,0,0,0,0,0,0,0,0.0175,0.0213,0.019,0.0159,0.0156,0.0123,0.0122,0.012,0.007,0.007,0.007,0.007,-0.0081,-0.0087,-0.0093,-0.0131,0,0,-0.0112,-0.0114,0,0,0,0,0,0,0,0,0.0178,0.0174,0.0164,0.0162,0.0158,0.0109,0.0074,0.0033,0.007,0.0097,0.007,0.007,-0.0024,-0.0035,-0.0053,-0.0138,-0.0145,-0.0112,-0.0116,-0.0118,-0.012,0,0,0,0,0,0,0,0.018,0.0176,0.0158,0.0164,0.016,0.0129,0.0124,0.0066,0.0032,0.0095,0.0092,0.0093,-0.0027,-0.0047,-0.0058,-0.0147,-0.0112,-0.0117,-0.0121,-0.0124,-0.0152,-0.0149,0,0,0,0,0,0,0.0202,0.0179,0.016,0.0156,0.0174,0.0129,0.0123,0.0121,0.0034,0.0023,0.0093,0.0091,-0.0037,-0.005,-0.0063,-0.0096,-0.0118,-0.0124,-0.0128,-0.0155,-0.0151,-0.0148,0,0,0,0,0,0,0.0203,0.0201,0.0163,0.017,0.0164,0.013,0.0127,0.0119,0.0106,0.0035,0.0021,0.009,-0.0037,-0.0055,-0.0101,-0.0103,-0.0127,-0.0132,-0.0158,-0.0154,-0.0149,-0.0172,0,0,0,0,0,0,0.0204,0.0202,0.0201,0.0172,0.0165,0.0143,0.0127,0.0118,0.0109,0.0105,0.0027,0.0012,-0.0039,-0.0091,-0.0107,-0.0112,-0.0137,-0.0162,-0.0156,-0.0151,-0.0175,-0.0169,-0.0164,0,0,0,0,0,0.0205,0.0199,0.0202,0.0199,0.0168,0.0143,0.0135,0.0108,0.0109,0.0097,0.0059,0.0015,-0.0065,-0.0096,-0.0114,-0.0121,-0.0164,-0.0158,-0.0151,-0.0178,-0.0171,-0.0164,0,0,0,0,0,0,0.0202,0.0193,0.0195,0.0186,0.0171,0.0137,0.0122,0.0117,0.0078,0.0072,0.0015,-0.0003,-0.003,-0.0054,-0.0085,-0.0095,-0.0107,-0.0104,-0.012,-0.0114,-0.0108,-0.0071,-0.0142,0,0,0,0,0,0.0208,0.0204,0.0191,0.0185,0.0179,0.0158,0.0145,0.013,0.0098,0.0081,0.0029,0.0001,-0.0017,-0.005,-0.0075,-0.0115,-0.0098,-0.0108,-0.0103,-0.0099,-0.007,-0.0009,0.0003,-0.0126,-0.0126,-0.0126,0,0,0.0208,0.0202,0.02,0.0185,0.0169,0.0147,0.0148,0.0129,0.0106,0.0068,0.0013,0.0006,-0.0014,-0.0046,-0.0058,-0.0076,-0.0062,-0.009,-0.0088,-0.0061,-0.0001,0.0011,0.0022,-0.0122,-0.0123,-0.0123,0,0,0.0203,0.0199,0.0195,0.0181,0.0167,0.0143,0.0146,0.0113,0.0094,0.0049,0.0047,0.0054,-0.0024,-0.0018,-0.0026,0.0006,-0.0024,0.0002,0.0026,0.0084,0.0094,0.0104,0.0083,0.0091,-0.001,-0.001,-0.001,0,0.0204,0.0197,0.0189,0.0177,0.0165,0.0146,0.0133,0.0101,0.0057,0.0058,0.0031,0.0044,-0.0002,0.0033,0.0034,0.0012,0.002,-0.0021,0.0087,0.0097,0.0107,0.0084,0.0093,-0.001,-0.001,-0.001,-0.001,0,0.0199,0.0186,0.0179,0.0157,0.014,0.0122,0.0092,0.0068,0.0045,0.0034,0.0064,0.005,0.0079,0.0064,0.0029,0.0101,0.0072,0.0088,0.0053,0.0118,0.009,0.0099,-0.001,-0.001,-0.001,-0.001,0,0,0.0217,0.0183,0.0183,0.0173,0.0131,0.012,0.008,0.0062,0.0076,0.005,0.0106,0.0081,0.013,0.0136,0.0144,0.0171,0.0196,0.0146,0.0149,0.0096,0.0271,0.0196,0.0199,0.0225,0.0228,0.023,0.0199,0,0.0216,0.0192,0.0177,0.0148,0.0128,0.0104,0.0078,0.0062,0.0055,0.0092,0.0136,0.019,0.0143,0.0194,0.0214,0.0235,0.0232,0.02,0.0246,0.0246,0.0149,0.0213,0.021,0.0181,0.0209,0.021,0.0212,0,0.0221,0.0199,0.0171,0.0151,0.0147,0.0126,0.0122,0.0106,0.0143,0.0156,0.0238,0.0292,0.0365,0.0331,0.0375,0.0357,0.0311,0.03,0.0299,0.0258,0.0193,0.0139,0.0197,0.0228,0.0226,0.0225,0.0224,0,0.0232,0.0205,0.0182,0.0169,0.0131,0.0129,0.0122,0.0129,0.0159,0.0247,0.0322,0.0402,0.0507,0.0487,0.0451,0.0424,0.0485,0.0448,0.0328,0.0319,0.0344,0.0333,0.0474,0.0474,0.0474,0.0474,0.0474,0,0.0229,0.0216,0.0187,0.0168,0.0167,0.015,0.0181,0.0182,0.026,0.0357,0.0396,0.0533,0.0562,0.0604,0.0508,0.0452,0.053,0.0353,0.0333,0.0329,0.0317,0.0399,0.039,0.0472,0.0473,0.0473,0.0473,0,0.0234,0.0209,0.0187,0.0161,0.0162,0.0166,0.0216,0.0266,0.032,0.0473,0.0534,0.0667,0.0716,0.0673,0.0666,0.0554,0.0483,0.0427,0.0377,0.0352,0.0244,0.0236,0.0296,0.0294,0.0292,0.029,0.0289,0,0.0232,0.0211,0.019,0.0197,0.0186,0.0204,0.0237,0.0283,0.0374,0.0566,0.0678,0.079,0.0879,0.0797,0.0642,0.0462,0.0457,0.0324,0.0278,0.0265,0.0239,0.0234,0.0228,0.0274,0.0272,0.0271,0.027,0,0.0223,0.0213,0.0202,0.0215,0.0242,0.03,0.0374,0.0458,0.0576,0.0721,0.0938,0.1025,0.0951,0.0832,0.0576,0.0443,0.035,0.0291,0.0367,0.0309,0.024,0.0215,0.0212,0.026,0.0261,0.0262,0.0263,0.0263,0.0229,0.023,0.0225,0.0256,0.0312,0.0433,0.0527,0.0649,0.0826,0.105,0.1091,0.1178,0.102,0.0695,0.0488,0.0255,0.0264,0.0171,0.0178,0.0185,0.0178,0.011,0.0099,0.0099,0.0099,0.0099,0.0099,0,0.0239,0.0253,0.0278,0.0347,0.0475,0.0485,0.0657,0.0776,0.1026,0.1126,0.1262,0.1086,0.0912,0.0694,0.0339,0.0128,0.0129,0.0059,0.0118,0.0128,0.0137,0.0131,0.0038,0.0038,0.0037,0.0037,0,0,0.0244,0.0269,0.0296,0.0494,0.0589,0.0771,0.0901,0.1045,0.1136,0.1249,0.1257,0.1212,0.096,0.0693,0.0428,0.0236,0.0224,0.0186,0.0252,0.0362,0.0374,0.0214,0.0216,0,0,0,0,0]}],[{"header":{"parameterUnit":"m.s-1","parameterCategory":2,"la1":30.2991,"la2":30.254,"lo1":-89.0895,"lo2":-89.0444,"dx":0.0017,"dy":0.0017,"nx":28,"ny":28,"refTime":"2023-01-10T15:00:00:Z","depth":"4","parameterNumber":2,"parameterNumberName":"U-component_of_CURRENTS"},"data":[0,0,0,0,0,0,0,0,0,0,0,0,0,0,0,0,0,0,0,0,0,0,0,0,0,0,0,0,0,0,0,0,0,0,0,0,0,0,0,0,0,0,0,0,0,0,0,0,0,0,0,0,0,0,0,0,0,0,0.0635,0.0633,0,0.0391,0.0388,0.0385,0.0338,0.0341,0.0343,0.0346,0.0291,0.0287,0.0283,0,0,0,0,0,0,0,0,0,0,0,0,0,0.0835,0.0832,0.0635,0.0632,0.063,0.0392,0.0388,0.0384,0.0338,0.0341,0.0344,0.0347,0.0292,0.0287,0.0283,0,0,0,0,0,0,0,0,0,0,0,0,0,0.0681,0.0831,0.0635,0.0582,0.0575,0.0393,0.0388,0.0383,0.0337,0.0341,0.0345,0.0348,0.0293,0.0288,0.0282,0.0175,0,0,0.0265,0.0263,0,0,0,0,0,0,0,0,0.069,0.0673,0.0592,0.0586,0.0578,0.0404,0.0438,0.0325,0.0336,0.0422,0.0346,0.035,0.0347,0.0337,0.0273,0.0172,0.017,0.0265,0.0261,0.0259,0.0257,0,0,0,0,0,0,0,0.0701,0.0682,0.0533,0.059,0.058,0.0493,0.0477,0.0414,0.0366,0.0415,0.0412,0.0392,0.0344,0.0278,0.0272,0.0169,0.0265,0.026,0.0256,0.0254,0.0209,0.0211,0,0,0,0,0,0,0.0749,0.0692,0.0541,0.0526,0.065,0.0488,0.0469,0.0451,0.0363,0.0352,0.039,0.0391,0.0285,0.0278,0.027,0.0329,0.0259,0.0254,0.025,0.0207,0.021,0.0212,0,0,0,0,0,0,0.0754,0.0737,0.0551,0.0608,0.0579,0.0483,0.0461,0.0445,0.0425,0.0342,0.0336,0.0395,0.0288,0.0278,0.025,0.0321,0.0251,0.0246,0.0205,0.0208,0.0211,0.0327,0,0,0,0,0,0,0.0761,0.0741,0.0742,0.0612,0.0578,0.0468,0.0458,0.0438,0.0407,0.0408,0.0343,0.0338,0.029,0.0258,0.0244,0.0312,0.0242,0.0202,0.0206,0.021,0.032,0.0333,0.0345,0,0,0,0,0,0.0768,0.0747,0.0743,0.0725,0.0584,0.0467,0.0441,0.038,0.0405,0.038,0.0354,0.0343,0.0277,0.0252,0.0236,0.0305,0.02,0.0205,0.021,0.0315,0.0331,0.0345,0,0,0,0,0,0,0.0823,0.0737,0.073,0.0684,0.0603,0.0463,0.043,0.0403,0.035,0.0375,0.0324,0.0314,0.033,0.0289,0.0265,0.0309,0.0255,0.0256,0.0341,0.0355,0.0367,0.0389,0.0237,0,0,0,0,0,0.084,0.0812,0.0714,0.0678,0.0649,0.0553,0.0504,0.0466,0.04,0.0382,0.0357,0.0341,0.0321,0.0319,0.0283,0.0272,0.0263,0.0322,0.0335,0.0345,0.0355,0.0368,0.0383,0.0228,0.0228,0.0228,0,0,0.085,0.08,0.0784,0.069,0.0625,0.0548,0.0532,0.0468,0.043,0.0385,0.0366,0.0371,0.0326,0.033,0.0339,0.0315,0.0395,0.0351,0.0361,0.0364,0.0375,0.039,0.0403,0.0231,0.0231,0.023,0,0,0.0825,0.0818,0.0777,0.0715,0.0634,0.0568,0.0571,0.0479,0.0475,0.0435,0.0431,0.0478,0.0418,0.0423,0.041,0.0465,0.0455,0.0487,0.0565,0.0579,0.0592,0.0603,0.0651,0.0665,0.0498,0.0498,0.0498,0,0.0848,0.0771,0.0743,0.0679,0.0632,0.0592,0.0528,0.049,0.0415,0.0447,0.0458,0.0478,0.0461,0.0486,0.053,0.0497,0.051,0.0509,0.0596,0.0606,0.0615,0.0661,0.0675,0.0504,0.0504,0.0503,0.0502,0,0.0767,0.0718,0.0689,0.0606,0.0562,0.0496,0.0454,0.0478,0.0505,0.0483,0.0559,0.0548,0.0583,0.0607,0.0581,0.0666,0.0659,0.0605,0.0557,0.0638,0.0682,0.0695,0.0513,0.0511,0.0509,0.0508,0,0,0.0783,0.0656,0.065,0.0614,0.0524,0.0481,0.0484,0.0467,0.0517,0.0534,0.0603,0.0636,0.0706,0.07,0.0718,0.075,0.0855,0.0728,0.0726,0.0777,0.0924,0.0836,0.0841,0.0816,0.0818,0.082,0.0944,0,0.0725,0.0601,0.056,0.0475,0.041,0.0429,0.0426,0.0445,0.0495,0.0564,0.0641,0.0694,0.071,0.0782,0.0819,0.0841,0.0888,0.0829,0.0838,0.0839,0.0749,0.0851,0.0826,0.0953,0.0955,0.0957,0.0959,0,0.0646,0.0579,0.0467,0.043,0.0416,0.0393,0.0468,0.0454,0.0555,0.0621,0.0733,0.078,0.0893,0.0872,0.0972,0.0939,0.0957,0.0961,0.0964,0.0844,0.0772,0.0845,0.0981,0.0979,0.0978,0.0976,0.0975,0,0.0632,0.0531,0.0449,0.0416,0.0356,0.0407,0.0425,0.0504,0.0548,0.0687,0.0764,0.0872,0.0953,0.0997,0.1064,0.1029,0.1142,0.1076,0.1013,0.1008,0.0996,0.0982,0.1127,0.1127,0.1127,0.1127,0.1126,0,0.0547,0.0502,0.0459,0.0405,0.0402,0.0407,0.0466,0.0526,0.0639,0.0701,0.0804,0.0895,0.0986,0.1067,0.11,0.1121,0.1179,0.1056,0.1034,0.1048,0.1039,0.1008,0.0992,0.1131,0.113,0.1129,0.1128,0,0.0489,0.044,0.0357,0.0341,0.0363,0.0372,0.0471,0.0533,0.0643,0.0747,0.0807,0.0943,0.1049,0.1122,0.1201,0.1157,0.1186,0.1168,0.1238,0.1212,0.1039,0.1028,0.1115,0.1113,0.1111,0.111,0.1108,0,0.0427,0.0361,0.0311,0.0305,0.0301,0.0354,0.0401,0.0521,0.0598,0.0772,0.082,0.0968,0.1051,0.1129,0.1171,0.1228,0.1186,0.1199,0.1075,0.1068,0.1039,0.103,0.1022,0.1105,0.1105,0.1105,0.1104,0,0.0311,0.0291,0.0237,0.0218,0.0255,0.0283,0.0387,0.0457,0.0608,0.0709,0.0862,0.0942,0.1032,0.1101,0.1151,0.1172,0.1192,0.1179,0.1181,0.1065,0.1058,0.1028,0.1022,0.1098,0.1099,0.1099,0.11,0,0.0257,0.0197,0.0141,0.0138,0.018,0.0232,0.0288,0.0429,0.0522,0.0748,0.0798,0.0941,0.1053,0.1072,0.1126,0.1141,0.109,0.103,0.1038,0.1045,0.0953,0.0929,0.0938,0,0,0,0,0,0.0193,0.012,0.0089,0.0088,0.0145,0.018,0.0284,0.0364,0.054,0.0634,0.0733,0.0836,0.0925,0.0984,0.0979,0.1022,0.1053,0.1003,0.0978,0.1064,0.1071,0.0961,0,0,0,0,0,0,0.0145,0.0076,0.0045,0.0067,0.0106,0.0167,0.024,0.0348,0.0426,0.0603,0.0667,0.0771,0.0868,0.0944,0.0969,0.0978,0.0937,0.1083,0.108,0.106,0.1066,0.1072,0.0961,0,0,0,0,0]},{"header":{"parameterUnit":"m.s-1","parameterCategory":2,"la1":30.2991,"la2":30.254,"lo1":-89.0895,"lo2":-89.0444,"dx":0.0017,"dy":0.0017,"nx":28,"ny":28,"refTime":"2023-01-10T15:00:00:Z","depth":"4","parameterNumber":3,"parameterNumberName":"V-component_of_CURRENTS"},"data":[0,0,0,0,0,0,0,0,0,0,0,0,0,0,0,0,0,0,0,0,0,0,0,0,0,0,0,0,0,0,0,0,0,0,0,0,0,0,0,0,0,0,0,0,0,0,0,0,0,0,0,0,0,0,0,0,0,0,0.0201,0.0201,0,0.0258,0.0259,0.026,0.0326,0.0326,0.0327,0.0327,0.0309,0.0308,0.0307,0,0,0,0,0,0,0,0,0,0,0,0,0,0.0174,0.0174,0.0201,0.0201,0.0201,0.0258,0.0259,0.0261,0.0325,0.0326,0.0327,0.0328,0.0309,0.0308,0.0307,0,0,0,0,0,0,0,0,0,0,0,0,0,0.0207,0.0174,0.0201,0.0238,0.0242,0.0258,0.0259,0.0261,0.0325,0.0326,0.0327,0.0328,0.031,0.0308,0.0307,0.0277,0,0,0.0302,0.0301,0,0,0,0,0,0,0,0,0.0205,0.0209,0.0232,0.0236,0.024,0.0283,0.0243,0.0261,0.0325,0.0297,0.0327,0.0329,0.029,0.029,0.0305,0.0276,0.0275,0.0302,0.0301,0.03,0.0299,0,0,0,0,0,0,0,0.0203,0.0207,0.0227,0.0232,0.0237,0.0261,0.0267,0.0248,0.0289,0.03,0.0304,0.0304,0.0292,0.0307,0.0305,0.0275,0.0302,0.03,0.0299,0.0298,0.017,0.0168,0,0,0,0,0,0,0.0186,0.0204,0.0225,0.0228,0.0221,0.0261,0.0268,0.0271,0.0291,0.0294,0.0303,0.0307,0.0309,0.0307,0.0304,0.0306,0.03,0.0298,0.0297,0.0173,0.017,0.0167,0,0,0,0,0,0,0.0186,0.0188,0.0223,0.0215,0.0221,0.026,0.0263,0.0271,0.0294,0.0294,0.0297,0.0318,0.031,0.0306,0.0307,0.0304,0.0298,0.0296,0.0176,0.0172,0.0169,0.0286,0,0,0,0,0,0,0.0185,0.0187,0.0192,0.0214,0.022,0.024,0.0262,0.0272,0.0291,0.0296,0.0306,0.0306,0.031,0.031,0.0306,0.0302,0.0295,0.0179,0.0174,0.017,0.0285,0.0287,0.0288,0,0,0,0,0,0.0183,0.0189,0.0192,0.0195,0.0223,0.0239,0.0246,0.0279,0.029,0.0303,0.0316,0.0306,0.0276,0.0309,0.0304,0.0299,0.0181,0.0175,0.017,0.0284,0.0286,0.0288,0,0,0,0,0,0,0.0184,0.0196,0.02,0.021,0.0223,0.0249,0.0265,0.0277,0.0299,0.0306,0.0307,0.0308,0.0299,0.0263,0.0299,0.0234,0.0212,0.0205,0.03,0.0301,0.0303,0.0325,0.0293,0,0,0,0,0,0.0181,0.019,0.02,0.0209,0.0214,0.0236,0.0249,0.0267,0.0283,0.0296,0.0304,0.0285,0.0267,0.0262,0.024,0.0221,0.0176,0.0194,0.0196,0.0199,0.0204,0.0113,0.0109,0.0149,0.015,0.015,0,0,0.018,0.0191,0.0194,0.021,0.0225,0.0248,0.0248,0.0268,0.0302,0.0285,0.033,0.0301,0.026,0.0254,0.0241,0.0232,0.0166,0.0192,0.0196,0.02,0.0107,0.0104,0.0101,0.0146,0.0146,0.0147,0,0,0.0195,0.0194,0.0211,0.0226,0.0245,0.0258,0.026,0.0285,0.0312,0.034,0.0324,0.0298,0.0287,0.0261,0.0243,0.0222,0.0179,0.0189,0.0229,0.0141,0.0139,0.0136,0.011,0.0103,0.019,0.019,0.019,0,0.0197,0.022,0.0219,0.0246,0.0266,0.0262,0.0292,0.0316,0.0343,0.0357,0.0364,0.0319,0.0292,0.0264,0.0266,0.0234,0.0191,0.0248,0.0151,0.0146,0.0142,0.0114,0.0106,0.0195,0.0194,0.0194,0.0193,0,0.0229,0.0251,0.0262,0.0298,0.0317,0.0336,0.0362,0.0388,0.041,0.042,0.0411,0.0376,0.0344,0.0313,0.0304,0.0239,0.0226,0.0174,0.0169,0.0146,0.0117,0.0107,0.0202,0.02,0.0199,0.0198,0,0,0.0225,0.0275,0.0282,0.0311,0.0345,0.0366,0.0418,0.0451,0.0473,0.0483,0.0495,0.0461,0.0421,0.0392,0.034,0.027,0.0222,0.0221,0.0214,0.0236,0.007,0.0096,0.0087,0.0155,0.0153,0.0151,0.008,0,0.0252,0.0314,0.0332,0.0391,0.0422,0.0445,0.0487,0.0517,0.0534,0.054,0.0495,0.0478,0.0455,0.043,0.0362,0.0234,0.0192,0.0249,0.005,0.0046,0.0105,0.0074,0.0144,0.0071,0.0069,0.0067,0.0066,0,0.028,0.032,0.0389,0.0442,0.0456,0.0497,0.0552,0.0589,0.0594,0.0603,0.0579,0.0533,0.0457,0.0423,0.025,0.0287,0.0202,0.0114,0.0107,0.0082,0.005,0.0079,0.0046,0.0047,0.0049,0.005,0.0051,0,0.0293,0.0355,0.0416,0.0439,0.0501,0.0549,0.0581,0.0611,0.0645,0.0636,0.0627,0.0543,0.0483,0.0356,0.0224,0.022,0.0025,-0.0015,-0.0055,-0.0052,-0.0098,-0.0095,-0.0126,-0.0126,-0.0126,-0.0126,-0.0126,0,0.0313,0.0356,0.0432,0.0472,0.0535,0.0573,0.064,0.0661,0.068,0.0687,0.065,0.061,0.0454,0.0341,0.0224,0.0068,0.0029,-0.0043,-0.0082,-0.0046,-0.0036,-0.0103,-0.0099,-0.0129,-0.0128,-0.0128,-0.0127,0,0.0315,0.0364,0.044,0.0525,0.0553,0.0606,0.0693,0.0732,0.0737,0.0739,0.0736,0.0643,0.049,0.0362,0.014,0.0065,-0.0088,-0.0122,-0.0022,-0.0054,-0.01,-0.009,-0.0194,-0.0194,-0.0194,-0.0194,-0.0194,0,0.0319,0.0366,0.0482,0.0539,0.0587,0.0671,0.0729,0.0772,0.0799,0.0749,0.0729,0.0611,0.0536,0.0269,0.0122,-0.0064,-0.009,-0.0141,-0.0159,-0.0086,-0.0113,-0.0103,-0.0094,-0.0193,-0.0193,-0.0193,-0.0193,0,0.0332,0.0388,0.0456,0.0564,0.0651,0.0723,0.0792,0.081,0.0829,0.083,0.0723,0.0605,0.0439,0.0256,0.0138,-0.0008,-0.0107,-0.0142,-0.0144,-0.0161,-0.0087,-0.0112,-0.0103,-0.0193,-0.0193,-0.0193,-0.0193,0,0.0345,0.0394,0.0496,0.0582,0.0689,0.0742,0.0778,0.0795,0.0815,0.0761,0.0719,0.0561,0.0476,0.0284,0.0155,0.004,-0.0009,-0.0052,-0.0059,-0.0061,0.0,0.0114,0.0036,0,0,0,0,0,0.0351,0.041,0.05,0.06,0.0701,0.0745,0.0805,0.0827,0.0835,0.0771,0.0751,0.0608,0.0403,0.0302,0.0188,0.0138,-0.0031,-0.0,-0.0085,-0.0193,-0.0193,-0.0143,0,0,0,0,0,0,0.0364,0.0447,0.0494,0.0595,0.0661,0.0747,0.0786,0.0778,0.0739,0.0729,0.0621,0.0586,0.0387,0.0473,0.0186,0.015,0.008,-0.0087,-0.009,-0.0193,-0.0193,-0.0193,-0.0141,0,0,0,0,0]}]]